CZ-4B R/B, 32959

Orbit data source: Space-Track

CZ-4B R/B, 32959 is space debris in SSO originally from a launch on Tue, 27 May 2008 UTC launched from the Taiyaun Space Center, China (TSC). Debris objects in space refer to the collection of defunct objects orbiting the Earth. Examples of debris include non-operational satellites, rocket bodies, and fragments generated from explosions, collisions, or faulty payload assembly.

Loading next visibility...
Identifier
32959, 2008-026B
Orbit
SSO
Country
Flag of CNCN / PRC
Related business
Manufacturer
SAST
Mission
Spacecraft
Bus & Motor
CZ-4 STAGE 3, Unknown motor
Mass
~1,000 kg wet, ~1,000 kg dry
Launch date (UTC)
2008-05-27 (18 years ago)
Launch vehicle
Unknown
Launch site
Taiyaun Space Center, China (TSC)
Object type
Payload
Rocket body
Debris
Shape & HBR
Cyl, 2.5 m
Radar Cross Section
20.385 m², Large (>1 m²)

Expand to show TLE details & history
Last TLE update: 2 days ago

TLE from 2 days ago
0 CZ-4B R/B
1 32959U 08026B   26171.45653610  .00000102  00000-0  44141-4 0  9992
2 32959  98.8543 243.1683 0067739 261.0511 108.8310 14.43033705950557
Epoch: 2026-06-20T10:57Z
TLE epoch observation values (Epoch: 2026-06-20T10:57:24.719Z)
Latitude
10.43452°
Longitude
168.50926°
Altitude
766.56 km
Speed
7.463 km/s
True Right ascension
16h 06m 07s
True Declination
10° 22' 25"
Sunlit
Object was in full shadow at epoch
Visualization orbit readout
Latitude
Unknown
Longitude
Unknown
Altitude
Unknown
Speed
Unknown
Apparent Right ascension
Unknown
Apparent Declination
Unknown
Sunlit
N/A
Visualization observer readout
Local Sidereal Time
23:09:12
Azimuth
Unknown
Elevation
Unknown
Doppler factor
Unknown
Orbital elements
Apogee altitude
793.883 km
Perigee altitude
697.372 km
Semi-major axis
7,123.764 km
Eccentricity
0.00677
Inclination
98.8543°
RAAN
243.1683°
Arg. of periapsis
261.0511°
True anomaly
109.56366°
Mean anomaly
108.831°
Eccentric anomaly
109.19753°
Mean motion
3.60976 °/min
Orbital period
99.73 mins
BSTAR
0.000044141
Loading maneuver chart data...
Computing Atmospheric mass density...
Loading historical data...
Loading historical data...
Loading historical data...
Loading historical data...
Loading historical data...
Loading historical data...
Loading historical data...

Documentation

Showing up to 5 results
|